Stations météo

réclame
Mon MeteoGroup
St-Hubert, Belgique (6476): Température de l'air & dewpoint: 12.02.2019 17:00:00 - 18.02.2019 17:00:00 (CET)St-Hubert, Belgique (6476): Vitesse du vent & gusts: 12.02.2019 17:00:00 - 18.02.2019 17:00:00 (CET)St-Hubert, Belgique (6476): Direction du vent: 12.02.2019 17:00:00 - 18.02.2019 17:00:00 (CET)St-Hubert, Belgique (6476): reduced air pressure: 12.02.2019 17:00:00 - 18.02.2019 17:00:00 (CET)St-Hubert, Belgique (6476): visibility: 12.02.2019 17:00:00 - 18.02.2019 17:00:00 (CET)
Date & Time tt [°C] td [°C] ff [km/h] ff [knt] fx [km/h] fx [knt] dd ppp [hPa] vv [km]
18.02.2019 17:00:00 8,5 0,4 18 10 29 16 SSW 1017,5 40
18.02.2019 16:00:00 9,4 0,1 18 10 - - SSW 1017,3 35
18.02.2019 15:00:00 10,0 -0,4 18 10 25 14 S 1017,3 35
18.02.2019 14:00:00 9,4 0,0 14 8 25 14 S 1017,9 35
18.02.2019 13:00:00 9,7 0,0 14 8 - - S 1018,4 30
18.02.2019 12:00:00 9,2 -0,8 14 8 25 14 SSW 1019,1 40
18.02.2019 11:00:00 8,2 -1,9 14 8 18 10 S 1019,7 45
18.02.2019 10:00:00 7,0 -1,1 7 4 - - SSW 1020,4 35
18.02.2019 09:00:00 5,0 -1,1 18 10 29 16 SSE 1021,1 35
18.02.2019 08:00:00 4,3 -1,0 14 8 22 12 SSE 1021,0 40
18.02.2019 07:00:00 4,4 -1,5 18 10 - - SSE 1021,2 40
18.02.2019 06:00:00 4,4 -1,8 18 10 22 12 SSE 1021,4 35
18.02.2019 05:00:00 4,2 -2,0 11 6 18 10 SSE 1021,6 45
18.02.2019 04:00:00 4,7 -1,5 14 8 - - S 1021,6 35
18.02.2019 03:00:00 5,4 -2,5 11 6 22 12 S 1021,8 40
18.02.2019 02:00:00 6,6 -1,7 14 8 18 10 S 1021,8 40
18.02.2019 01:00:00 6,5 -1,0 14 8 - - S 1022,0 40
18.02.2019 00:00:00 7,5 -1,4 18 10 25 14 S 1021,8 45
17.02.2019 23:00:00 7,8 -2,2 18 10 25 14 S 1021,8 45
17.02.2019 22:00:00 7,9 -1,8 14 8 - - S 1022,0 45
17.02.2019 21:00:00 8,4 -2,0 18 10 29 16 S 1021,7 45
17.02.2019 20:00:00 7,8 -0,4 14 8 22 12 S 1021,9 40
17.02.2019 19:00:00 8,5 -1,3 14 8 - - S 1021,6 40
17.02.2019 18:00:00 9,3 -2,0 11 6 22 12 S 1021,1 45
17.02.2019 17:00:00 11,6 -3,7 14 8 25 14 SSW 1020,7 45
17.02.2019 16:00:00 13,0 -4,4 18 10 - - SSW 1020,6 40
17.02.2019 15:00:00 13,0 -4,0 14 8 32 18 SSW 1020,7 35
17.02.2019 14:00:00 12,2 -3,1 18 10 32 18 SSW 1021,2 35
17.02.2019 13:00:00 12,3 -2,8 18 10 - - SSW 1021,7 35
17.02.2019 12:00:00 11,2 -3,6 18 10 29 16 SSW 1022,1 35
17.02.2019 11:00:00 8,8 -2,2 11 6 22 12 SSW 1022,9 27
17.02.2019 10:00:00 7,0 -1,4 11 6 - - S 1023,4 20
17.02.2019 09:00:00 5,1 -0,7 18 10 25 14 SSE 1024,0 19
17.02.2019 08:00:00 4,9 -0,9 18 10 25 14 SSE 1023,9 18
17.02.2019 07:00:00 4,7 -0,2 18 10 - - SSE 1023,9 15
17.02.2019 06:00:00 4,9 0,4 18 10 22 12 SSE 1024,4 12
17.02.2019 05:00:00 4,9 0,1 14 8 18 10 SSE 1024,6 14
17.02.2019 04:00:00 5,6 0,0 14 8 - - S 1024,9 14
17.02.2019 03:00:00 5,3 0,6 11 6 14 8 S 1025,5 13
17.02.2019 02:00:00 5,5 1,0 11 6 14 8 S 1025,9 13
17.02.2019 01:00:00 6,1 1,2 11 6 - - S 1026,2 12
17.02.2019 00:00:00 7,3 1,7 11 6 22 12 S 1026,0 13
16.02.2019 23:00:00 6,0 1,0 14 8 22 12 SSE 1026,7 12
16.02.2019 22:00:00 6,2 0,6 11 6 - - S 1026,8 16
16.02.2019 21:00:00 5,4 -1,2 11 6 14 8 S 1027,1 30
16.02.2019 20:00:00 5,8 -1,8 11 6 14 8 S 1027,2 30
16.02.2019 19:00:00 7,3 -1,6 7 4 - - S 1026,9 35
16.02.2019 18:00:00 8,2 -1,6 11 6 18 10 SSW 1026,8 40
16.02.2019 17:00:00 12,2 -3,0 11 6 18 10 S 1025,8 40
16.02.2019 16:00:00 13,7 -3,0 11 6 - - WSW 1025,8 40
16.02.2019 15:00:00 14,0 -0,9 11 6 25 14 WSW 1025,9 40
16.02.2019 14:00:00 13,1 -4,0 18 10 25 14 WSW 1026,5 30
16.02.2019 13:00:00 12,6 -4,0 14 8 - - WSW 1026,8 23
16.02.2019 12:00:00 10,7 -2,1 18 10 22 12 SW 1027,5 18
16.02.2019 11:00:00 9,7 0,0 14 8 22 12 SW 1027,4 30
16.02.2019 10:00:00 7,2 -0,7 14 8 - - SSW 1028,0 29
16.02.2019 09:00:00 4,5 -1,3 7 4 14 8 SSW 1028,5 21
16.02.2019 08:00:00 3,3 -1,9 7 4 14 8 S 1028,4 22
16.02.2019 07:00:00 3,7 -1,7 11 6 - - S 1027,9 27
16.02.2019 06:00:00 5,6 -2,1 7 4 14 8 SSW 1028,0 30
16.02.2019 05:00:00 5,1 -1,8 11 6 25 14 SSW 1028,3 30
16.02.2019 04:00:00 6,0 -1,3 18 10 - - SSE 1028,3 40
16.02.2019 03:00:00 5,8 -1,6 22 12 32 18 SSE 1028,4 40
16.02.2019 02:00:00 5,6 -1,3 18 10 29 16 SSE 1028,8 45
16.02.2019 01:00:00 6,4 -1,0 22 12 - - SSE 1028,5 40
16.02.2019 00:00:00 6,5 -0,8 14 8 25 14 SE 1028,8 45
15.02.2019 23:00:00 6,2 -1,2 14 8 29 16 SSE 1029,2 45
15.02.2019 22:00:00 8,0 -1,9 22 12 - - SSE 1029,0 45
15.02.2019 21:00:00 7,0 -2,0 22 12 32 18 SSE 1029,3 45
15.02.2019 20:00:00 7,9 -1,6 25 14 32 18 SE 1029,1 45
15.02.2019 19:00:00 8,2 -1,9 18 10 - - SE 1029,3 45
15.02.2019 18:00:00 9,3 -2,1 14 8 22 12 SE 1029,0 45
15.02.2019 17:00:00 11,3 -1,9 14 8 22 12 SSE 1028,9 40
15.02.2019 16:00:00 12,8 -2,7 14 8 - - SE 1029,3 35
15.02.2019 15:00:00 13,3 -3,4 14 8 29 16 SE 1029,5 35
15.02.2019 14:00:00 12,9 -4,1 18 10 29 16 SSE 1030,2 30
15.02.2019 13:00:00 12,3 -3,7 18 10 - - SSE 1031,2 35
15.02.2019 12:00:00 10,9 -4,6 18 10 29 16 SE 1032,0 35
15.02.2019 11:00:00 10,2 -4,7 18 10 29 16 SE 1032,1 40
15.02.2019 10:00:00 9,2 -5,6 14 8 - - SE 1032,5 40
15.02.2019 09:00:00 8,3 -5,5 18 10 29 16 SE 1032,8 45
15.02.2019 08:00:00 7,0 -5,1 18 10 29 16 SE 1032,9 50
15.02.2019 07:00:00 6,1 -4,0 22 12 - - SE 1033,0 45
15.02.2019 06:00:00 7,1 -4,3 18 10 29 16 SE 1032,9 50
15.02.2019 05:00:00 6,3 -4,9 18 10 32 18 SE 1033,1 45
15.02.2019 04:00:00 5,9 -6,9 22 12 - - SE 1033,4 45
15.02.2019 03:00:00 6,1 -6,5 22 12 32 18 SE 1033,8 50
15.02.2019 02:00:00 6,7 -5,4 22 12 36 19 SE 1033,8 50
15.02.2019 01:00:00 6,0 -5,2 22 12 - - SE 1034,2 45
15.02.2019 00:00:00 6,4 -6,3 22 12 32 18 SE 1034,0 45
14.02.2019 23:00:00 6,7 -4,6 22 12 32 18 SE 1034,2 45
14.02.2019 22:00:00 6,3 -3,4 22 12 - - ESE 1034,4 45
14.02.2019 21:00:00 6,8 -2,9 22 12 32 18 SE 1034,4 45
14.02.2019 20:00:00 6,8 -2,6 18 10 29 16 ESE 1034,5 45
14.02.2019 19:00:00 6,6 -4,4 14 8 - - E 1034,7 45
14.02.2019 18:00:00 7,3 -3,8 11 6 22 12 ESE 1034,3 45
14.02.2019 17:00:00 9,5 -3,6 11 6 22 12 ESE 1034,1 45
14.02.2019 16:00:00 10,4 -3,3 14 8 - - ESE 1034,2 45
14.02.2019 15:00:00 10,7 -4,3 22 12 32 18 SE 1034,4 45
14.02.2019 14:00:00 10,4 -4,0 18 10 25 14 ESE 1034,9 40
14.02.2019 13:00:00 10,2 -4,7 14 8 - - SE 1035,6 45
14.02.2019 12:00:00 9,3 -6,4 18 10 32 18 SE 1035,9 35
14.02.2019 11:00:00 8,2 -8,3 18 10 29 16 SE 1036,1 40
14.02.2019 10:00:00 7,2 -6,5 18 10 - - SE 1036,3 45
14.02.2019 09:00:00 5,5 -7,5 22 12 29 16 SSE 1036,9 45
14.02.2019 08:00:00 4,8 -8,5 14 8 22 12 SSE 1036,4 50
14.02.2019 07:00:00 4,5 -7,5 18 10 - - SSE 1036,0 50
14.02.2019 06:00:00 3,6 -3,9 18 10 25 14 SSE 1036,4 45
14.02.2019 05:00:00 3,5 -5,3 14 8 22 12 SSE 1036,5 50
14.02.2019 04:00:00 3,6 -5,2 14 8 - - SSE 1036,5 50
14.02.2019 03:00:00 3,5 -4,5 18 10 22 12 SSE 1036,5 50
14.02.2019 02:00:00 3,3 -4,0 18 10 25 14 SSE 1036,6 45
14.02.2019 01:00:00 3,2 -5,2 14 8 - - SSE 1036,8 45
14.02.2019 00:00:00 2,7 -5,3 14 8 22 12 SSE 1036,9 50
13.02.2019 23:00:00 2,9 -8,1 14 8 18 10 SSE 1037,1 50
13.02.2019 22:00:00 3,4 -8,6 14 8 - - SSE 1037,0 50
13.02.2019 21:00:00 2,4 -6,5 14 8 18 10 SSE 1037,1 45
13.02.2019 20:00:00 2,6 -5,5 11 6 18 10 SE 1037,2 45
13.02.2019 19:00:00 1,3 -1,8 11 6 - - SE 1037,6 45
13.02.2019 18:00:00 3,2 -1,5 4 2 14 8 S 1036,9 45
13.02.2019 17:00:00 4,7 -1,0 11 6 14 8 S 1036,3 45
13.02.2019 16:00:00 5,8 -0,4 7 4 - - SSW 1036,1 35
13.02.2019 15:00:00 5,8 -0,6 11 6 14 8 SW 1036,3 35
13.02.2019 14:00:00 5,7 -0,8 7 4 14 8 WSW 1036,6 35
13.02.2019 13:00:00 4,4 -0,8 7 4 - - WSW 1037,1 35
13.02.2019 12:00:00 3,0 -1,0 11 6 14 8 SSW 1037,7 22
13.02.2019 11:00:00 1,7 -1,2 11 6 18 10 S 1038,1 30
13.02.2019 10:00:00 0,4 -1,9 7 4 - - SSW 1038,6 35
13.02.2019 09:00:00 -1,1 -2,8 7 4 11 6 S 1038,7 40
13.02.2019 08:00:00 -2,4 -3,8 7 4 11 6 SSW 1038,5 30
13.02.2019 07:00:00 -2,3 -4,1 7 4 - - SSW 1038,3 35
13.02.2019 06:00:00 -2,5 -4,0 7 4 11 6 S 1038,7 30
13.02.2019 05:00:00 -2,7 -4,0 7 4 11 6 SSW 1038,8 30
13.02.2019 04:00:00 -2,8 -4,0 4 2 - - SW 1039,2 24
13.02.2019 03:00:00 -2,6 -3,7 7 4 11 6 SW 1039,3 9
13.02.2019 02:00:00 -2,3 -2,6 7 4 11 6 SW 1038,9 0,1
13.02.2019 01:00:00 -2,4 -2,8 7 4 - - SW 1039,2 0,2
13.02.2019 00:00:00 -1,8 -2,3 11 6 14 8 SSW 1038,6 0,2
12.02.2019 23:00:00 -1,8 -2,1 7 4 14 8 SSW 1038,7 0,1
12.02.2019 22:00:00 -0,9 -1,8 11 6 - - WSW 1038,5 2,6
12.02.2019 21:00:00 -1,1 -2,3 7 4 11 6 WSW 1038,3 5
12.02.2019 20:00:00 -1,1 -1,9 11 6 18 10 SSW 1038,3 4,5
12.02.2019 19:00:00 -0,1 -1,2 14 8 - - WSW 1038,1 3,2
12.02.2019 18:00:00 1,1 -0,4 14 8 18 10 WSW 1037,2 9
12.02.2019 17:00:00 3,0 -2,3 11 6 18 10 SW 1036,3 45

tt = Température de l'air
td = dewpoint
ff = Vitesse du vent
fx = gusts
dd = Direction du vent
ppp = reduced air pressure
vv = visibility

stations d'obs. à proximité